This is the latest recevied weather packets stored in our database for station/object OK1UOJ. If no packets are shown the sender has not sent any weather packets the latest 10 day(s).
| Time | Temp. | Humidity | Pressure | Rain* | Wind** | Luminosity | Snow |
|---|---|---|---|---|---|---|---|
| 1777543795 | 13.89° C | 33% | 1032.6 hPa | - | - | - | - |
| 1777543521 | 13.33° C | 36% | 1032.7 hPa | - | - | - | - |
| 1777543517 | 13.33° C | 36% | 1032.7 hPa | - | - | - | - |
| 1777543240 | 12.78° C | 38% | 1032.8 hPa | - | - | - | - |
| 1777542962 | 12.78° C | 39% | 1032.9 hPa | - | - | - | - |
| 1777542405 | 11.67° C | 42% | 1033 hPa | - | - | - | - |
| 1777542132 | 12.22° C | 40% | 1033 hPa | - | - | - | - |
| 1777542127 | 12.22° C | 40% | 1033 hPa | - | - | - | - |
| 1777541854 | 12.22° C | 37% | 1032.9 hPa | - | - | - | - |
| 1777541849 | 12.22° C | 37% | 1032.9 hPa | - | - | - | - |
| 1777539909 | 12.22° C | 42% | 1033.3 hPa | - | - | - | - |
| 1777539905 | 12.22° C | 42% | 1033.3 hPa | - | - | - | - |
| 1777539631 | 11.67° C | 42% | 1033.4 hPa | - | - | - | - |
| 1777539631 | 11.67° C | 42% | 1033.4 hPa | - | - | - | - |
| 1777539627 | 11.67° C | 42% | 1033.4 hPa | - | - | - | - |
| 1777539353 | 11.11° C | 43% | 1033.5 hPa | - | - | - | - |
| 1777539353 | 11.11° C | 43% | 1033.5 hPa | - | - | - | - |
| 1777539348 | 11.11° C | 43% | 1033.5 hPa | - | - | - | - |
| 1777539075 | 11.11° C | 40% | 1033.5 hPa | - | - | - | - |
| 1777539071 | 11.11° C | 40% | 1033.5 hPa | - | - | - | - |
| 1777538793 | 11.11° C | 43% | 1033.6 hPa | - | - | - | - |
| 1777538520 | 10.56° C | 41% | 1033.5 hPa | - | - | - | - |
| 1777538515 | 10.56° C | 41% | 1033.5 hPa | - | - | - | - |
| 1777538242 | 11.11° C | 45% | 1033.5 hPa | - | - | - | - |
| 1777538237 | 11.11° C | 45% | 1033.5 hPa | - | - | - | - |
* Rain since midnight (hover to see other rain measurements)
** Current wind speed in m/s (hover to see current wind gust speed)